Regional Weather Roundup
Issued by NWS

Home | Current Version | Previous Version | Text Only | Print | Product List | Glossary Off
Versions: 1 2 3 4 5 6 7 8 9 10 11 12 13 14 15 16 17 18 19 20 21 22 23 24 25 26 27 28 29 30 31 32 33 34 35 36 37 38 39 40 41 42 43 44 45 46 47 48 49 50

000
ASUS43 KMKX 221200
RWRWI

WISCONSIN REGIONAL WEATHER ROUNDUP
NATIONAL WEATHER SERVICE MILWAUKEE/SULLIVAN WI
600 AM CST MON DEC 22 2014

NOTE: "FAIR" INDICATES FEW OR NO CLOUDS BELOW 12,000 FEET WITH NO
SIGNIFICANT WEATHER AND/OR OBSTRUCTIONS TO VISIBILITY.

WIZ001-002-006>008-014>016-023>028-221300-
NORTHWEST WISCONSIN

CITY           SKY/WX    TMP DP  RH WIND       PRES   REMARKS
SUPERIOR ARPT  MIX PCPN  33  32  99 NE6       29.72S WCI  27
ASHLAND        CLOUDY    36  33  89 SE5       29.77R WCI  32
6HR MIN TEMP:  34; 6HR MAX TEMP:  36; 6HR PCP:  0.05;

HAYWARD        LGT SNOW  34  32  92 S10       29.74R FOG     WCI  26
6HR MIN TEMP:  34; 6HR MAX TEMP:  35; 6HR PCP:  0.06;

SIREN          CLOUDY    35  34  98 SE10      29.70S FOG     WCI  27
CUMBERLAND     DRIZZLE   32  32 100 SE9       29.71F WCI  24
RICE LAKE      CLOUDY    34  33  97 SE10      29.75S FOG     WCI  26
CHETEK         CLOUDY    34  34  99 SE9       29.75S FOG     WCI  27
LADYSMITH      CLOUDY    35  34  96 SE12      29.78S FOG     WCI  26
EAU CLAIRE     NOT AVBL
MENOMONIE      CLOUDY    36  35  96 SE14      29.74S FOG     WCI  27
NEW RICHMOND   LGT RAIN  36  36 100 SE9G18    29.70S WCI  29
OSCEOLA        CLOUDY    37  37 100 SE12      29.72S WCI  29
$$

WIZ003>005-009-010-017-018-221300-
NORTH CENTRAL WISCONSIN

CITY           SKY/WX    TMP DP  RH WIND       PRES   REMARKS
MANITOWISH WTR CLOUDY    32  32 100 S9        29.78S WCI  24
ARBOR VITAE    CLOUDY    34  32  93 S9G17     29.79S WCI  27
WOODRUFF       CLOUDY    34  32  93 S9G17     29.79S WCI  27
RHINELANDER    CLOUDY    31  30  96 S7        29.82S FOG     WCI  24
6HR MIN TEMP:  31; 6HR MAX TEMP:  32; 6HR PCP: TRACE;

EAGLE RIVER    CLOUDY    32  32  99 S7        29.81S FOG     WCI  26
LAND O LAKES   LGT SNOW  32  32  99 S8        29.82R WCI  25
PHILLIPS       LGT SNOW  32  32  99 SE10      29.77S WCI  24
TOMAHAWK       CLOUDY    32  31  96 S3        29.82R FOG
MEDFORD        CLOUDY    32  31  96 SE12G17   29.80R FOG     WCI  23
MERRILL        CLOUDY    33  32  99 S7        29.83S FOG     WCI  26
$$

WIZ029-030-035-036-043>047-221300-
CENTRAL WISCONSIN

CITY           SKY/WX    TMP DP  RH WIND       PRES   REMARKS
WAUSAU         LGT SNOW  33  31  92 SE9       29.83R FOG     WCI  25
6HR MIN TEMP:  33; 6HR MAX TEMP:  33; 6HR PCP: TRACE;

MOSINEE        CLOUDY    32  32 100 SE12      29.84S FOG     WCI  23
MARSHFIELD     CLOUDY    33  31  92 S10       29.82R FOG     WCI  25
6HR MIN TEMP:  33; 6HR MAX TEMP:  34; 6HR PCP: TRACE;

STEVENS POINT  CLOUDY    32  29  91 SE8       29.86S FOG     WCI  24
WAUPACA        CLOUDY    36  31  82 SE7       29.89S WCI  30
WAUTOMA        NOT AVBL
WISC RAPIDS    CLOUDY    34  29  82 SE8       29.85F WCI  27
6HR MIN TEMP:  33; 6HR MAX TEMP:  35; 6HR PCP: TRACE;

CAMP DOUGLAS   CLOUDY    32  32 100 SE8       29.82F WCI  25
$$

WIZ011>013-019>022-031-037>040-048>050-221300-
NORTHEAST WISCONSIN

CITY           SKY/WX    TMP DP  RH WIND       PRES   REMARKS
ANTIGO         CLOUDY    31  30  99 S13       29.84S FOG     WCI  21
SHAWANO        CLOUDY    36  31  82 SE6       29.90S WCI  31
OCONTO         CLOUDY    35  32  90 SE7       29.92F WCI  29
STURGEON BAY   CLOUDY    36  30  80 S14       29.95S WCI  27
6HR MIN TEMP:  36; 6HR MAX TEMP:  36;

GREEN BAY      CLOUDY    35  31  85 S10       29.92S FOG     WCI  27
6HR MIN TEMP:  35; 6HR MAX TEMP:  36;

MANITOWOC      NOT AVBL
APPLETON       CLOUDY   N/A N/A N/A MISG      29.90  FOG
CLINTONVILLE   CLOUDY    34  30  86 S8        29.89S WCI  27
OSHKOSH        CLOUDY    34  29  82 S10       29.90S WCI  26
6HR MIN TEMP:  34; 6HR MAX TEMP:  35;

$$

WIZ032>034-041-042-053>061-221300-
SOUTHWEST WISCONSIN

CITY           SKY/WX    TMP DP  RH WIND       PRES   REMARKS
LA CROSSE      CLOUDY    38  32  79 SE9       29.79S WCI  31
6HR MIN TEMP:  37; 6HR MAX TEMP:  38;

SPARTA         CLOUDY    35  31  87 SE7       29.82S WCI  29
VIROQUA        CLOUDY    33  33 100 SE10      29.78S WCI  25
BOSCOBEL       CLOUDY    36  31  82 VRB3      29.82F
6HR MIN TEMP:  36; 6HR MAX TEMP:  37; 6HR PCP: TRACE;

PRAIRIE DU CHI CLOUDY    35  32  88 E6        29.80S FOG     WCI  30
PLATTEVILLE    CLOUDY    34  32  92 CALM      29.82F
$$

WIZ056-057-062-063-064-067-068-221300-
SOUTH CENTRAL WISCONSIN

CITY           SKY/WX    TMP DP  RH WIND       PRES   REMARKS
REEDSBURG      CLOUDY    33  31  92 SE8       29.84S WCI  26
BARABOO/DELLS  CLOUDY    33  31  92 SE9       29.84S FOG     WCI  25
LONE ROCK      NOT AVBL
MINERAL POINT  CLOUDY    34  32  93 SE13      29.82S FOG     WCI  25
MADISON        LGT SNOW  34  30  85 SE12      29.87S FOG     WCI  25
6HR MIN TEMP:  34; 6HR MAX TEMP:  35; 6HR PCP: TRACE;

MIDDLETON      CLOUDY    35  33  93 SE10      29.86F WCI  27
WATERTOWN      MIX PCPN  32  32 100 SE7       29.90S WCI  26
MONROE         CLOUDY    32  32 100 SE10      29.85F FOG     WCI  24
JANESVILLE     CLOUDY    34  32  93 SE9       29.89F FOG     WCI  26
$$

WIZ051-052-058>065-066-070>072-221300-
SOUTHEAST WISCONSIN

CITY           SKY/WX    TMP DP  RH WIND       PRES   REMARKS
MILWAUKEE      MOCLDY    35  29  78 S10       29.95S WCI  27
6HR MIN TEMP:  33; 6HR MAX TEMP:  35;

WAUKESHA       CLOUDY    30  27  86 SE8       29.93F WCI  23
MILWAUKEE/TIMM CLOUDY    32  28  86 SE8       29.95S WCI  25
RACINE         CLOUDY    35  30  82 S12       29.96S WCI  27
6HR MIN TEMP:  33; 6HR MAX TEMP:  35;

BURLINGTON     CLOUDY    31  27  85 S8        29.93S WCI  23
KENOSHA        CLOUDY    33  29  85 S9        29.95S FOG     WCI  25
6HR MIN TEMP:  31; 6HR MAX TEMP:  34;

FOND DU LAC    MIX PCPN  33  30  88 S8        29.91R FOG     WCI  26
6HR MIN TEMP:  33; 6HR MAX TEMP:  35; 6HR PCP: TRACE;

SHEBOYGAN      CLOUDY    36  31  82 S10       29.94S WCI  28
6HR MIN TEMP:  35; 6HR MAX TEMP:  36;

WEST BEND      CLOUDY    32  28  86 SE6       29.92S WCI  26
JUNEAU         MIX PCPN  32  31  96 SE10      29.91R WCI  23
$$

LSZ147-162-221300-
LAKE SUPERIOR

STATION/POSITION TIME  TEMP    WIND        PRES    WAVE
                       AIR SEA DIR/SP/G            HT/PER
                 (UTC) (F)     (DEG/KT/KT) (MB)    (FT/S)
DEVILS ISLAND    1100   34     150/ 10/ 12 1008.6S
PORT WING        1140   36     150/  3/  7 1007.5R
SAXON HARBOR     1140   38     180/  4/  8 1008.1S
$$

LMZ867-665-643>646-221300-
LAKE MICHIGAN

STATION/POSITION TIME  TEMP    WIND        PRES    WAVE
                       AIR SEA DIR/SP/G            HT/PER
                 (UTC) (F)     (DEG/KT/KT) (MB)    (FT/S)
CHAMBERS ISLAND  1100   37     160/  6/ 11 1014.2S
NORTHPORT PIER   1100   36     150/ 11/ 19 1014.6S
SISTER BAY       1113          160/ 12/ 16   N/A
ALGOMA LAKESHORE 1115          220/ 22/ 25   N/A
KEWAUNEE LAKESHO 1100   36     190/ 13/ 16 1013.4F
SHEBOYGAN LAKESH 1100   37 36  170/ 21/ 23 1014.5F
PORT WASHINGTON  1100   36     180/ 12/ 17 1014.9F
MILWAUKEE LAKESH 1100   35     170/ 12/ 14   N/A
KENOSHA   LAKESH 1100   35     170/ 15/ 17 1014.2F
$$

TC  - TEMPERATURE IN CELSIUS
VSB - VISIBILITY IN STATUTE MILES
WCI - WIND CHILL INDEX
HX  - HEAT INDEX




USA.gov is the U.S. government's official web portal to all federal, state and local government web resources and services.